Flag for China Weather past 2 weeks in Tianjin, Tianjin Municipality, China

34 °F


Feels Like: 34 °F
Forecast: 24 / 34 °F
Wind: 1 mph from Southeast

Location: Tianjin / Zhangguizhu

Current Time: Dec 1, 2015 at 4:15:40 PM

Latest Report: Dec 1, 2015 at 3:30 PM

Visibility: 0 mi

Pressure: 30.04 "Hg

Humidity: 100%

Dew point: 34 °F

Location of TianjinLocation

Historic Weather in Tianjin — Graph


Tianjin temperature yesterday

Maximum temperature yesterday: 41 °F (at 11:30 AM)
Minimum temperature yesterday: 23 °F (at 7:30 AM)
Average temperature yesterday: 32 °F

Past Weeks' High & Low Weather Summary

High50 °F (Nov 16, 3:30 PM)100% (Nov 20, 1:30 AM)30.77 "Hg (Nov 20, 1:30 AM)
Low12 °F (Nov 26, 7:00 AM)30% (Nov 16, 3:30 PM)30.04 "Hg (Dec 1, 2:00 PM)
Average30 °F78%30.41 "Hg
* Reported Nov 16 3:00 PM — Dec 1 3:00 PM, Tianjin, Weather by CustomWeather, © 2015

Note: Actual official high and low records may vary slightly from our data, if they occured in-between our weather recording intervals... More about our weather records


Tianjin weather history for previous 24 hours

Time TempWeatherWind HumidityBarometerVisibility
3:00 PM
Tue, Dec 1
34 °FFog.1 mph93%30.04 "Hg1 mi
2:30 PM34 °FDrizzle. Fog.No wind93%30.04 "Hg1 mi
2:00 PM34 °FDrizzle. Fog.1 mph100%30.04 "Hg1 mi
1:30 PM34 °FDrizzle. Fog.1 mph93%30.07 "Hg1 mi
12:30 PM34 °FDrizzle. Fog.1 mph93%30.09 "Hg1 mi
11:30 AM34 °FDrizzle. Fog.1 mph93%30.12 "Hg1 mi
11:00 AM34 °FDrizzle. Fog.3 mph93%30.12 "Hg1 mi
10:30 AM34 °FDrizzle. Fog.3 mph93%30.12 "Hg1 mi
10:00 AM34 °FDrizzle. Fog.6 mph93%30.12 "Hg1 mi
8:30 AM34 °FDrizzle. Fog.3 mph93%30.15 "Hg1 mi
8:00 AM34 °FDrizzle. Fog.3 mph93%30.15 "Hg1 mi
7:30 AM34 °FFog.3 mph93%30.15 "Hg0 mi
7:00 AM34 °FFog.6 mph93%30.15 "Hg1 mi
6:30 AM34 °FFog.3 mph93%30.15 "Hg1 mi
6:00 AM34 °FFog.3 mph93%30.12 "Hg1 mi
5:30 AM34 °FFog.3 mph93%30.15 "Hg0 mi
5:00 AM34 °FFog.3 mph93%30.15 "Hg0 mi
4:30 AM34 °FFog.3 mph93%30.15 "Hg0 mi
4:00 AM34 °FFog.1 mph93%30.15 "Hg0 mi
3:30 AM34 °FFog.3 mph93%30.15 "Hg0 mi
3:00 AM34 °FFog.8 mph93%30.18 "Hg0 mi
2:30 AM34 °FFog.3 mph93%30.18 "Hg1 mi
2:00 AM34 °FLight snow. Fog.3 mph100%30.18 "Hg0 mi
1:30 AM36 °FLight snow. Fog.6 mph93%30.18 "Hg0 mi
1:00 AM36 °FLight snow. Fog.3 mph93%30.18 "Hg0 mi
12:30 AM36 °FFog.6 mph93%30.21 "Hg0 mi
12:00 AM36 °FFog.1 mph93%30.21 "Hg1 mi
11:30 PM
Mon, Nov 30
36 °FFog.3 mph93%30.21 "Hg1 mi
11:00 PM34 °FFog.1 mph93%30.21 "Hg1 mi
10:30 PM34 °FFog.1 mph93%30.21 "Hg1 mi
10:00 PM34 °FFog.1 mph93%30.21 "Hg1 mi
9:30 PM34 °FFog.1 mph93%30.21 "Hg1 mi
9:00 PM32 °FFog.1 mph93%30.21 "Hg1 mi
8:30 PM34 °FFog.1 mph87%30.21 "Hg1 mi
8:00 PM34 °FFog.3 mph87%30.21 "Hg1 mi
7:30 PM34 °FFog.3 mph87%30.21 "Hg1 mi
7:00 PM34 °FFog.3 mph93%30.21 "Hg1 mi
6:30 PM34 °FFog.3 mph87%30.21 "Hg1 mi
6:00 PM34 °FFog.3 mph87%30.21 "Hg1 mi
5:30 PM34 °FFog.3 mph87%30.21 "Hg1 mi
5:00 PM36 °FHaze.1 mph81%30.21 "Hg1 mi
4:30 PM39 °FHaze.3 mph75%30.21 "Hg1 mi
4:00 PM41 °FHaze.3 mph70%30.21 "Hg1 mi
Weather by CustomWeather, © 2015

See weather overviewHow to use our weather pages